QPF
0.01 0.01 0.00 0.01 0.01 0.01 0.01 0.01 0.01 0.01 0.02 0.03 0.03 0.02 0.03 0.03 0.03 0.02 0.02 0.02 0.02 0.02 0.03 0.04 0.05 0.06 0.09 0.08 0.03 0.02 0.05 0.04 0.03 0.05 0.06 0.05 0.04 0.04 0.04 0.04 0.04 0.03 0.02 0.02
0.01 0.01 0.01 0.01 0.01 0.01 0.01 0.01 0.00 0.01 0.03 0.03 0.03 0.04 0.04 0.04 0.03 0.02 0.02 0.02 0.02 0.03 0.04 0.05 0.05 0.05 0.06 0.05 0.03 0.03 0.04 0.05 0.06 0.05 0.05 0.04 0.04 0.04 0.04 0.03 0.03 0.03 0.02 0.02
0.00 0.01 0.01 0.01 0.01 0.01 0.01 0.00 0.01 0.02 0.06 0.05 0.03 0.04 0.05 0.06 0.04 0.02 0.02 0.02 0.03 0.03 0.05 0.07 0.07 0.06 0.05 0.04 0.04 0.04 0.05 0.06 0.06 0.06 0.06 0.06 0.06 0.06 0.05 0.04 0.04 0.04 0.03 0.02
0.00 0.01 0.01 0.02 0.01 0.01 0.00 0.01 0.01 0.02 0.04 0.07 0.07 0.04 0.05 0.06 0.05 0.04 0.04 0.04 0.04 0.05 0.06 0.05 0.04 0.04 0.03 0.03 0.03 0.04 0.05 0.05 0.05 0.07 0.07 0.05 0.05 0.05 0.06 0.06 0.05 0.05 0.04 0.04
0.01 0.01 0.02 0.02 0.02 0.01 0.01 0.01 0.01 0.02 0.03 0.06 0.10 0.07 0.05 0.05 0.06 0.06 0.06 0.06 0.05 0.05 0.05 0.05 0.03 0.02 0.02 0.02 0.03 0.02 0.03 0.04 0.05 0.05 0.04 0.03 0.03 0.04 0.06 0.07 0.06 0.05 0.04 0.05
0.01 0.02 0.03 0.03 0.02 0.02 0.02 0.04 0.04 0.03 0.03 0.04 0.06 0.06 0.05 0.06 0.07 0.07 0.05 0.05 0.06 0.04 0.04 0.03 0.03 0.02 0.02 0.02 0.02 0.02 0.02 0.03 0.02 0.02 0.02 0.01 0.02 0.03 0.03 0.03 0.03 0.04 0.04 0.04
0.01 0.03 0.07 0.04 0.01 0.02 0.04 0.08 0.10 0.08 0.08 0.07 0.09 0.07 0.08 0.08 0.06 0.05 0.04 0.03 0.05 0.05 0.03 0.02 0.03 0.03 0.04 0.03 0.02 0.02 0.01 0.01 0.01 0.02 0.02 0.01 0.01 0.01 0.02 0.02 0.02 0.03 0.04 0.04
0.02 0.04 0.05 0.03 0.01 0.03 0.04 0.05 0.10 0.12 0.12 0.08 0.08 0.07 0.09 0.10 0.06 0.05 0.05 0.07 0.08 0.05 0.03 0.03 0.02 0.02 0.02 0.03 0.03 0.02 0.01 0.01 0.01 0.01 0.01 0.01 0.01 0.02 0.02 0.03 0.03 0.04 0.04 0.04
0.04 0.06 0.06 0.04 0.03 0.03 0.04 0.05 0.06 0.09 0.11 0.09 0.07 0.06 0.07 0.08 0.05 0.05 0.04 0.04 0.06 0.04 0.03 0.03 0.02 0.02 0.02 0.02 0.02 0.02 0.01 0.01 0.01 0.01 0.01 0.01 0.01 0.01 0.01 0.02 0.02 0.02 0.03 0.03
0.05 0.08 0.07 0.06 0.05 0.05 0.04 0.04 0.04 0.04 0.05 0.07 0.08 0.06 0.06 0.07 0.07 0.04 0.03 0.02 0.02 0.03 0.03 0.03 0.02 0.02 0.02 0.02 0.02 0.02 0.02 0.02 0.03 0.02 0.02 0.03 0.02 0.02 0.02 0.02 0.02 0.02 0.02 0.02
0.06 0.07 0.07 0.07 0.07 0.06 0.05 0.05 0.05 0.04 0.04 0.05 0.08 0.07 0.05 0.03 0.05 0.06 0.06 0.03 0.03 0.02 0.03 0.04 0.03 0.03 0.02 0.02 0.02 0.02 0.03 0.03 0.04 0.03 0.04 0.04 0.04 0.03 0.04 0.04 0.04 0.03 0.03 0.03
0.06 0.07 0.09 0.08 0.06 0.05 0.05 0.07 0.07 0.07 0.07 0.05 0.07 0.07 0.06 0.05 0.05 0.04 0.06 0.06 0.04 0.03 0.04 0.05 0.04 0.04 0.03 0.03 0.02 0.02 0.02 0.03 0.03 0.03 0.03 0.04 0.03 0.03 0.04 0.04 0.03 0.03 0.03 0.03
0.06 0.07 0.09 0.10 0.06 0.04 0.04 0.04 0.06 0.07 0.06 0.05 0.07 0.08 0.06 0.05 0.06 0.06 0.07 0.08 0.06 0.06 0.07 0.07 0.06 0.06 0.04 0.03 0.03 0.02 0.02 0.02 0.03 0.03 0.03 0.03 0.03 0.02 0.02 0.02 0.02 0.02 0.02 0.02
0.05 0.06 0.07 0.09 0.07 0.05 0.05 0.05 0.05 0.06 0.05 0.05 0.08 0.06 0.06 0.04 0.06 0.09 0.08 0.09 0.09 0.09 0.11 0.11 0.10 0.09 0.07 0.05 0.04 0.03 0.01 0.02 0.02 0.02 0.03 0.02 0.02 0.02 0.03 0.02 0.02 0.01 0.02 0.03
0.05 0.06 0.07 0.07 0.05 0.04 0.05 0.05 0.05 0.05 0.04 0.05 0.06 0.05 0.05 0.03 0.04 0.06 0.08 0.08 0.07 0.09 0.12 0.13 0.13 0.11 0.10 0.08 0.07 0.05 0.03 0.03 0.03 0.03 0.04 0.03 0.04 0.04 0.04 0.04 0.03 0.03 0.03 0.05
0.04 0.06 0.07 0.07 0.07 0.05 0.04 0.03 0.03 0.02 0.03 0.03 0.04 0.03 0.03 0.03 0.03 0.04 0.05 0.08 0.09 0.07 0.08 0.08 0.09 0.08 0.06 0.06 0.07 0.07 0.04 0.04 0.05 0.05 0.04 0.05 0.05 0.05 0.04 0.04 0.03 0.03 0.03 0.04
0.04 0.07 0.09 0.09 0.07 0.05 0.04 0.03 0.02 0.02 0.03 0.03 0.03 0.03 0.03 0.03 0.03 0.03 0.05 0.06 0.07 0.06 0.05 0.05 0.05 0.05 0.04 0.04 0.05 0.05 0.05 0.06 0.06 0.06 0.05 0.05 0.06 0.06 0.05 0.04 0.03 0.03 0.02 0.03
0.05 0.07 0.09 0.09 0.07 0.05 0.04 0.02 0.02 0.02 0.02 0.02 0.02 0.02 0.02 0.01 0.02 0.02 0.03 0.04 0.04 0.04 0.03 0.03 0.03 0.03 0.02 0.03 0.03 0.03 0.04 0.05 0.06 0.06 0.06 0.06 0.06 0.05 0.05 0.04 0.04 0.04 0.03 0.04
0.05 0.04 0.04 0.05 0.06 0.06 0.06 0.03 0.02 0.01 0.01 0.01 0.01 0.01 0.01 0.01 0.01 0.02 0.03 0.03 0.04 0.04 0.03 0.04 0.04 0.02 0.02 0.02 0.02 0.02 0.03 0.04 0.04 0.04 0.05 0.06 0.06 0.05 0.05 0.06 0.06 0.05 0.05 0.05
0.03 0.03 0.02 0.02 0.02 0.03 0.04 0.03 0.02 0.02 0.01 0.01 0.01 0.00 0.00 0.01 0.01 0.03 0.06 0.06 0.05 0.05 0.05 0.05 0.04 0.03 0.02 0.02 0.01 0.02 0.03 0.03 0.03 0.03 0.04 0.04 0.05 0.05 0.06 0.05 0.05 0.05 0.07 0.07
0.02 0.02 0.02 0.01 0.01 0.02 0.02 0.02 0.02 0.01 0.01 0.01 0.01 0.01 0.00 0.01 0.02 0.03 0.05 0.08 0.06 0.05 0.05 0.06 0.05 0.03 0.02 0.02 0.02 0.01 0.02 0.04 0.03 0.04 0.04 0.04 0.03 0.02 0.03 0.03 0.03 0.03 0.05 0.05
0.02 0.02 0.02 0.02 0.02 0.02 0.02 0.02 0.01 0.01 0.01 0.01 0.01 0.01 0.01 0.01 0.02 0.04 0.05 0.07 0.07 0.05 0.03 0.03 0.02 0.02 0.01 0.02 0.02 0.03 0.03 0.05 0.06 0.05 0.04 0.05 0.05 0.04 0.03 0.03 0.04 0.04 0.04 0.04
0.03 0.03 0.02 0.02 0.02 0.02 0.02 0.02 0.01 0.01 0.01 0.02 0.02 0.02 0.01 0.02 0.03 0.05 0.04 0.03 0.03 0.02 0.01 0.01 0.01 0.01 0.01 0.02 0.03 0.04 0.04 0.04 0.04 0.04 0.04 0.05 0.06 0.06 0.06 0.06 0.06 0.05 0.05 0.04
0.03 0.03 0.03 0.03 0.03 0.02 0.03 0.03 0.03 0.03 0.04 0.05 0.03 0.02 0.02 0.02 0.02 0.02 0.01 0.01 0.01 0.00 0.00 0.01 0.01 0.01 0.01 0.01 0.02 0.02 0.03 0.03 0.04 0.05 0.05 0.05 0.05 0.06 0.06 0.05 0.06 0.06 0.06 0.06
0.04 0.04 0.04 0.04 0.05 0.04 0.04 0.03 0.04 0.04 0.05 0.04 0.02 0.01 0.01 0.02 0.02 0.02 0.02 0.02 0.01 0.01 0.01 0.01 0.02 0.02 0.02 0.03 0.02 0.02 0.03 0.04 0.04 0.04 0.04 0.05 0.06 0.06 0.06 0.06 0.06 0.06 0.06 0.06
0.03 0.03 0.03 0.03 0.03 0.03 0.02 0.02 0.02 0.02 0.02 0.02 0.02 0.01 0.01 0.02 0.03 0.04 0.03 0.02 0.02 0.01 0.02 0.02 0.02 0.03 0.03 0.04 0.05 0.05 0.04 0.04 0.04 0.04 0.04 0.04 0.05 0.05 0.05 0.06 0.06 0.06 0.07 0.07
0.02 0.02 0.02 0.02 0.02 0.02 0.01 0.01 0.01 0.01 0.02 0.01 0.01 0.02 0.01 0.01 0.03 0.08 0.05 0.02 0.02 0.02 0.02 0.03 0.03 0.03 0.04 0.04 0.04 0.03 0.03 0.03 0.03 0.03 0.04 0.05 0.06 0.07 0.07 0.06 0.06 0.06 0.06 0.06
MSLP
1011.51 1011.33 1011.21 1011.21 1011.36 1011.66 1012.09 1012.62 1013.20 1013.79 1014.35 1014.87 1015.33 1015.74 1016.12 1016.46 1016.77 1017.05 1017.28 1017.45 1017.54 1017.54 1017.47 1017.35 1017.19 1017.03 1016.88 1016.77 1016.70 1016.63 1016.56 1016.45 1016.27 1015.99 1015.63 1015.19 1014.69 1014.16 1013.65 1013.17 1012.74 1012.36 1012.02 1011.69
1011.88 1011.65 1011.41 1011.22 1011.13 1011.18 1011.36 1011.69 1012.13 1012.68 1013.28 1013.93 1014.57 1015.20 1015.79 1016.31 1016.75 1017.10 1017.33 1017.46 1017.49 1017.42 1017.29 1017.13 1016.97 1016.83 1016.72 1016.66 1016.63 1016.60 1016.54 1016.43 1016.23 1015.93 1015.54 1015.07 1014.55 1014.01 1013.48 1012.99 1012.54 1012.13 1011.75 1011.38
1012.19 1011.93 1011.61 1011.29 1011.03 1010.89 1010.89 1011.06 1011.40 1011.89 1012.52 1013.23 1014.00 1014.76 1015.48 1016.11 1016.63 1017.01 1017.24 1017.33 1017.30 1017.18 1017.01 1016.83 1016.66 1016.53 1016.46 1016.43 1016.42 1016.41 1016.36 1016.23 1016.02 1015.71 1015.30 1014.82 1014.29 1013.75 1013.23 1012.73 1012.26 1011.82 1011.40 1010.96
1012.51 1012.23 1011.87 1011.48 1011.12 1010.86 1010.75 1010.81 1011.06 1011.50 1012.10 1012.83 1013.64 1014.46 1015.24 1015.92 1016.46 1016.85 1017.07 1017.13 1017.07 1016.92 1016.72 1016.52 1016.36 1016.24 1016.18 1016.16 1016.15 1016.13 1016.06 1015.92 1015.69 1015.36 1014.95 1014.47 1013.96 1013.43 1012.92 1012.43 1011.95 1011.49 1011.01 1010.52
1012.88 1012.59 1012.21 1011.80 1011.41 1011.10 1010.92 1010.91 1011.10 1011.48 1012.04 1012.74 1013.52 1014.33 1015.10 1015.77 1016.31 1016.68 1016.89 1016.94 1016.86 1016.70 1016.51 1016.31 1016.15 1016.03 1015.96 1015.92 1015.89 1015.83 1015.72 1015.54 1015.28 1014.94 1014.52 1014.06 1013.58 1013.08 1012.60 1012.12 1011.65 1011.16 1010.65 1010.10
1013.28 1012.98 1012.62 1012.22 1011.84 1011.53 1011.34 1011.30 1011.44 1011.77 1012.26 1012.90 1013.62 1014.36 1015.08 1015.71 1016.21 1016.56 1016.75 1016.81 1016.74 1016.60 1016.42 1016.24 1016.08 1015.95 1015.85 1015.77 1015.68 1015.56 1015.39 1015.15 1014.85 1014.48 1014.07 1013.63 1013.18 1012.73 1012.28 1011.83 1011.38 1010.89 1010.35 1009.76
1013.63 1013.34 1013.01 1012.66 1012.33 1012.07 1011.90 1011.87 1011.99 1012.27 1012.69 1013.24 1013.87 1014.53 1015.16 1015.72 1016.18 1016.51 1016.70 1016.77 1016.74 1016.63 1016.48 1016.32 1016.15 1016.00 1015.86 1015.71 1015.54 1015.34 1015.09 1014.78 1014.43 1014.04 1013.63 1013.21 1012.80 1012.39 1011.99 1011.58 1011.15 1010.67 1010.13 1009.51
1013.86 1013.58 1013.29 1013.02 1012.77 1012.59 1012.49 1012.49 1012.62 1012.86 1013.23 1013.70 1014.23 1014.79 1015.33 1015.82 1016.23 1016.54 1016.74 1016.83 1016.84 1016.77 1016.66 1016.51 1016.34 1016.16 1015.96 1015.73 1015.47 1015.18 1014.84 1014.46 1014.06 1013.64 1013.23 1012.83 1012.45 1012.08 1011.73 1011.36 1010.96 1010.50 1009.96 1009.33
1013.87 1013.61 1013.39 1013.21 1013.07 1013.00 1012.99 1013.06 1013.21 1013.46 1013.79 1014.18 1014.63 1015.10 1015.56 1015.98 1016.35 1016.64 1016.84 1016.96 1017.01 1016.98 1016.89 1016.75 1016.58 1016.35 1016.09 1015.79 1015.44 1015.05 1014.62 1014.18 1013.73 1013.29 1012.87 1012.49 1012.14 1011.81 1011.50 1011.16 1010.79 1010.35 1009.83 1009.21
1013.62 1013.40 1013.26 1013.19 1013.18 1013.23 1013.34 1013.50 1013.71 1013.98 1014.29 1014.64 1015.02 1015.41 1015.80 1016.17 1016.49 1016.76 1016.97 1017.11 1017.18 1017.18 1017.11 1016.98 1016.78 1016.52 1016.20 1015.82 1015.39 1014.92 1014.43 1013.93 1013.44 1012.99 1012.57 1012.20 1011.87 1011.57 1011.28 1010.98 1010.63 1010.20 1009.69 1009.09
1013.13 1012.97 1012.92 1012.97 1013.10 1013.28 1013.51 1013.78 1014.07 1014.37 1014.69 1015.03 1015.36 1015.70 1016.03 1016.35 1016.64 1016.89 1017.09 1017.24 1017.32 1017.33 1017.26 1017.12 1016.89 1016.59 1016.22 1015.79 1015.30 1014.78 1014.24 1013.71 1013.21 1012.74 1012.32 1011.96 1011.64 1011.36 1011.08 1010.78 1010.44 1010.03 1009.53 1008.94
1012.49 1012.40 1012.45 1012.62 1012.87 1013.19 1013.55 1013.92 1014.28 1014.64 1014.99 1015.32 1015.63 1015.94 1016.22 1016.50 1016.75 1016.98 1017.16 1017.30 1017.37 1017.37 1017.30 1017.13 1016.88 1016.55 1016.14 1015.67 1015.15 1014.61 1014.06 1013.51 1013.01 1012.54 1012.13 1011.77 1011.45 1011.16 1010.87 1010.56 1010.21 1009.80 1009.31 1008.73
1011.81 1011.81 1011.96 1012.23 1012.61 1013.04 1013.51 1013.97 1014.41 1014.82 1015.19 1015.52 1015.82 1016.10 1016.36 1016.60 1016.82 1017.01 1017.17 1017.28 1017.33 1017.31 1017.21 1017.02 1016.75 1016.40 1015.97 1015.48 1014.96 1014.41 1013.87 1013.34 1012.84 1012.39 1011.98 1011.62 1011.28 1010.97 1010.65 1010.32 1009.94 1009.51 1009.02 1008.45
1011.23 1011.32 1011.56 1011.93 1012.39 1012.92 1013.46 1013.99 1014.48 1014.93 1015.32 1015.65 1015.95 1016.20 1016.43 1016.64 1016.83 1016.99 1017.11 1017.19 1017.21 1017.16 1017.03 1016.82 1016.52 1016.16 1015.72 1015.24 1014.73 1014.21 1013.69 1013.19 1012.71 1012.27 1011.87 1011.49 1011.13 1010.78 1010.42 1010.04 1009.63 1009.17 1008.67 1008.11
1010.85 1011.02 1011.34 1011.78 1012.31 1012.89 1013.48 1014.04 1014.56 1015.01 1015.40 1015.73 1016.01 1016.24 1016.45 1016.63 1016.78 1016.91 1017.00 1017.04 1017.03 1016.95 1016.79 1016.55 1016.25 1015.87 1015.45 1014.99 1014.50 1014.01 1013.53 1013.06 1012.61 1012.18 1011.77 1011.37 1010.97 1010.57 1010.16 1009.73 1009.27 1008.79 1008.27 1007.72
1010.70 1010.95 1011.34 1011.83 1012.40 1013.00 1013.60 1014.15 1014.66 1015.10 1015.47 1015.77 1016.02 1016.23 1016.41 1016.56 1016.69 1016.78 1016.84 1016.86 1016.81 1016.70 1016.52 1016.27 1015.96 1015.59 1015.18 1014.74 1014.29 1013.84 1013.39 1012.95 1012.52 1012.10 1011.68 1011.26 1010.82 1010.36 1009.89 1009.40 1008.90 1008.39 1007.86 1007.33
1010.78 1011.11 1011.55 1012.07 1012.65 1013.24 1013.81 1014.33 1014.79 1015.19 1015.51 1015.78 1016.00 1016.18 1016.33 1016.46 1016.56 1016.63 1016.67 1016.66 1016.59 1016.46 1016.27 1016.00 1015.69 1015.33 1014.94 1014.53 1014.11 1013.69 1013.28 1012.87 1012.46 1012.04 1011.61 1011.15 1010.67 1010.17 1009.64 1009.10 1008.56 1008.01 1007.48 1006.96
1011.04 1011.43 1011.91 1012.45 1013.01 1013.57 1014.09 1014.55 1014.95 1015.28 1015.55 1015.77 1015.95 1016.10 1016.23 1016.33 1016.42 1016.48 1016.50 1016.47 1016.39 1016.25 1016.04 1015.78 1015.47 1015.11 1014.74 1014.35 1013.96 1013.57 1013.19 1012.80 1012.40 1011.99 1011.55 1011.07 1010.56 1010.02 1009.45 1008.87 1008.29 1007.73 1007.19 1006.68
1011.41 1011.85 1012.36 1012.89 1013.43 1013.93 1014.38 1014.78 1015.10 1015.37 1015.58 1015.75 1015.88 1016.01 1016.11 1016.21 1016.28 1016.34 1016.35 1016.32 1016.23 1016.08 1015.87 1015.60 1015.29 1014.95 1014.59 1014.23 1013.86 1013.50 1013.13 1012.77 1012.39 1011.98 1011.54 1011.06 1010.53 1009.97 1009.38 1008.78 1008.18 1007.60 1007.06 1006.56
1011.80 1012.29 1012.81 1013.33 1013.82 1014.27 1014.65 1014.97 1015.23 1015.43 1015.58 1015.71 1015.82 1015.92 1016.02 1016.11 1016.18 1016.23 1016.25 1016.21 1016.12 1015.97 1015.75 1015.49 1015.19 1014.85 1014.51 1014.15 1013.81 1013.47 1013.13 1012.79 1012.43 1012.04 1011.62 1011.15 1010.63 1010.07 1009.49 1008.89 1008.29 1007.71 1007.16 1006.67
1012.18 1012.69 1013.20 1013.69 1014.14 1014.53 1014.85 1015.11 1015.31 1015.45 1015.57 1015.67 1015.76 1015.86 1015.95 1016.05 1016.13 1016.19 1016.20 1016.17 1016.08 1015.92 1015.71 1015.45 1015.15 1014.82 1014.48 1014.15 1013.82 1013.50 1013.19 1012.88 1012.55 1012.20 1011.81 1011.38 1010.90 1010.37 1009.81 1009.23 1008.64 1008.07 1007.53 1007.03
1012.51 1013.02 1013.51 1013.97 1014.37 1014.71 1014.97 1015.18 1015.33 1015.45 1015.55 1015.64 1015.74 1015.84 1015.95 1016.06 1016.15 1016.22 1016.24 1016.21 1016.12 1015.97 1015.75 1015.49 1015.19 1014.87 1014.54 1014.22 1013.91 1013.62 1013.34 1013.07 1012.78 1012.48 1012.14 1011.76 1011.34 1010.87 1010.36 1009.82 1009.27 1008.72 1008.18 1007.67
1012.81 1013.29 1013.74 1014.15 1014.50 1014.79 1015.02 1015.19 1015.32 1015.43 1015.53 1015.64 1015.75 1015.88 1016.01 1016.14 1016.25 1016.33 1016.36 1016.34 1016.24 1016.09 1015.88 1015.61 1015.32 1015.00 1014.69 1014.38 1014.10 1013.83 1013.59 1013.36 1013.13 1012.88 1012.61 1012.30 1011.94 1011.54 1011.10 1010.62 1010.11 1009.59 1009.07 1008.55
1013.09 1013.51 1013.91 1014.27 1014.57 1014.81 1015.01 1015.16 1015.29 1015.41 1015.53 1015.67 1015.81 1015.97 1016.13 1016.29 1016.42 1016.51 1016.55 1016.53 1016.44 1016.29 1016.07 1015.81 1015.52 1015.22 1014.91 1014.63 1014.37 1014.13 1013.93 1013.74 1013.56 1013.37 1013.16 1012.93 1012.65 1012.32 1011.95 1011.54 1011.09 1010.61 1010.11 1009.60
1013.36 1013.72 1014.06 1014.35 1014.60 1014.81 1014.98 1015.13 1015.27 1015.41 1015.56 1015.73 1015.92 1016.11 1016.31 1016.49 1016.64 1016.74 1016.79 1016.77 1016.68 1016.53 1016.32 1016.06 1015.78 1015.48 1015.19 1014.93 1014.69 1014.48 1014.31 1014.16 1014.02 1013.89 1013.74 1013.57 1013.36 1013.11 1012.81 1012.46 1012.07 1011.64 1011.17 1010.68
1013.64 1013.94 1014.20 1014.44 1014.64 1014.81 1014.97 1015.12 1015.27 1015.44 1015.63 1015.83 1016.05 1016.28 1016.50 1016.70 1016.87 1016.98 1017.03 1017.01 1016.92 1016.76 1016.55 1016.31 1016.03 1015.75 1015.48 1015.23 1015.01 1014.83 1014.68 1014.55 1014.45 1014.35 1014.25 1014.12 1013.97 1013.78 1013.54 1013.26 1012.93 1012.55 1012.13 1011.67
1013.94 1014.17 1014.37 1014.55 1014.71 1014.86 1015.00 1015.16 1015.32 1015.51 1015.73 1015.96 1016.20 1016.45 1016.68 1016.89 1017.05 1017.16 1017.20 1017.18 1017.08 1016.93 1016.72 1016.48 1016.23 1015.96 1015.71 1015.47 1015.27 1015.10 1014.97 1014.86 1014.77 1014.68 1014.60 1014.50 1014.38 1014.23 1014.04 1013.81 1013.54 1013.22 1012.85 1012.43
Thickness
5766 5778 5782 5783 5787 5789 5780 5770 5760 5764 5771 5784 5793 5798 5801 5802 5802 5802 5803 5804 5802 5799 5798 5797 5795 5794 5794 5792 5791 5788 5784 5781 5778 5777 5774 5771 5768 5766 5764 5762 5760 5758 5755 5753
5758 5773 5775 5775 5784 5786 5783 5780 5775 5773 5773 5792 5796 5798 5797 5797 5797 5795 5795 5796 5796 5796 5794 5792 5791 5791 5790 5788 5787 5785 5781 5778 5776 5773 5771 5768 5766 5763 5760 5758 5756 5754 5752 5750
5735 5756 5761 5751 5768 5774 5775 5779 5776 5766 5774 5787 5785 5787 5789 5792 5793 5792 5790 5790 5790 5791 5791 5790 5789 5788 5785 5785 5783 5780 5777 5774 5772 5769 5767 5765 5763 5759 5756 5754 5752 5750 5748 5746
5723 5734 5722 5746 5775 5779 5774 5774 5778 5778 5780 5784 5784 5784 5785 5788 5788 5786 5786 5785 5785 5786 5785 5786 5787 5785 5784 5782 5779 5775 5772 5770 5768 5766 5763 5761 5758 5755 5753 5750 5747 5745 5743 5742
5710 5710 5721 5747 5765 5768 5761 5756 5771 5771 5774 5776 5779 5776 5773 5781 5783 5781 5781 5780 5780 5781 5779 5780 5779 5779 5777 5774 5772 5769 5766 5764 5763 5761 5758 5755 5752 5750 5748 5745 5742 5740 5739 5737
5706 5705 5705 5731 5762 5774 5763 5740 5764 5767 5765 5766 5768 5752 5756 5770 5774 5773 5773 5773 5773 5773 5773 5772 5771 5771 5768 5765 5763 5761 5760 5759 5758 5756 5752 5749 5747 5744 5742 5740 5737 5735 5733 5732
5700 5699 5711 5740 5759 5763 5732 5732 5757 5761 5760 5758 5755 5752 5756 5761 5762 5763 5763 5766 5766 5765 5764 5763 5764 5763 5758 5756 5754 5755 5754 5753 5751 5749 5746 5743 5740 5738 5735 5733 5730 5728 5726 5725
5693 5691 5701 5739 5747 5738 5736 5748 5752 5752 5751 5749 5749 5751 5751 5750 5751 5753 5754 5757 5758 5756 5755 5756 5757 5755 5750 5747 5748 5748 5746 5744 5742 5740 5739 5737 5733 5730 5728 5725 5721 5719 5717 5716
5696 5699 5718 5732 5736 5740 5743 5741 5742 5743 5745 5744 5742 5741 5741 5741 5742 5743 5745 5747 5749 5747 5746 5746 5747 5745 5740 5739 5739 5739 5737 5734 5733 5732 5730 5727 5724 5721 5718 5716 5713 5710 5708 5706
5695 5703 5714 5722 5729 5733 5736 5735 5737 5738 5738 5737 5734 5733 5733 5733 5732 5733 5735 5737 5738 5736 5735 5734 5735 5735 5732 5732 5731 5729 5726 5724 5723 5722 5719 5718 5715 5713 5709 5706 5703 5701 5698 5696
5687 5695 5703 5710 5716 5720 5723 5727 5728 5729 5729 5729 5726 5722 5722 5723 5725 5726 5726 5726 5727 5725 5724 5723 5724 5724 5723 5722 5721 5718 5716 5715 5713 5711 5708 5706 5704 5702 5700 5698 5696 5692 5690 5688
5679 5690 5692 5696 5707 5713 5713 5714 5715 5716 5715 5716 5715 5712 5711 5713 5715 5716 5716 5715 5714 5714 5713 5714 5714 5713 5713 5713 5711 5708 5705 5704 5703 5700 5698 5696 5693 5691 5689 5688 5687 5684 5682 5679
5688 5692 5693 5697 5702 5705 5704 5705 5706 5705 5704 5704 5704 5704 5702 5702 5704 5705 5704 5700 5701 5702 5703 5703 5703 5702 5702 5702 5700 5697 5695 5694 5692 5690 5688 5686 5684 5681 5677 5677 5676 5674 5673 5670
5689 5689 5685 5689 5691 5695 5696 5696 5696 5695 5696 5696 5695 5694 5694 5693 5693 5692 5692 5692 5692 5692 5692 5692 5691 5690 5691 5691 5690 5687 5685 5684 5682 5680 5678 5676 5674 5671 5669 5666 5664 5663 5663 5661
5679 5681 5680 5683 5685 5686 5688 5687 5685 5683 5683 5684 5685 5684 5684 5683 5681 5680 5681 5682 5681 5680 5679 5678 5678 5677 5679 5679 5678 5676 5674 5672 5671 5669 5668 5666 5664 5662 5659 5657 5655 5653 5651 5650
5670 5672 5674 5674 5674 5676 5677 5677 5674 5672 5673 5673 5673 5673 5673 5673 5671 5670 5670 5669 5668 5666 5666 5666 5666 5666 5668 5667 5666 5665 5663 5663 5661 5658 5657 5655 5654 5652 5650 5647 5646 5644 5642 5641
5661 5660 5662 5662 5665 5667 5667 5668 5666 5665 5664 5663 5663 5663 5663 5661 5659 5658 5657 5657 5656 5655 5655 5655 5655 5656 5657 5656 5655 5654 5653 5652 5652 5650 5647 5646 5645 5643 5641 5639 5637 5636 5635 5634
5659 5659 5659 5658 5658 5658 5657 5658 5658 5657 5655 5655 5655 5654 5652 5650 5647 5647 5647 5646 5645 5645 5646 5646 5646 5646 5646 5645 5645 5643 5642 5642 5641 5639 5638 5637 5635 5634 5632 5630 5629 5628 5627 5625
5653 5653 5653 5653 5653 5651 5649 5648 5648 5649 5649 5648 5646 5644 5642 5641 5639 5639 5638 5636 5635 5633 5634 5635 5635 5635 5635 5635 5635 5633 5632 5631 5631 5629 5628 5627 5625 5624 5622 5620 5618 5618 5617 5615
5643 5644 5644 5644 5645 5643 5642 5641 5641 5640 5640 5640 5638 5636 5633 5632 5631 5630 5629 5627 5626 5625 5626 5626 5626 5625 5625 5625 5625 5623 5622 5621 5620 5619 5618 5617 5615 5614 5613 5611 5609 5608 5607 5605
5635 5636 5636 5636 5635 5635 5635 5635 5634 5632 5631 5631 5630 5628 5626 5625 5624 5623 5620 5618 5619 5619 5618 5618 5617 5616 5615 5615 5614 5613 5612 5611 5609 5608 5607 5606 5605 5604 5602 5601 5599 5598 5597 5595
5628 5629 5629 5629 5627 5627 5628 5628 5627 5626 5625 5624 5623 5622 5619 5617 5616 5615 5614 5612 5612 5612 5610 5608 5607 5607 5606 5605 5604 5603 5602 5600 5599 5598 5597 5595 5594 5592 5591 5590 5589 5588 5587 5585
5622 5623 5623 5623 5622 5622 5622 5622 5621 5620 5619 5618 5616 5614 5612 5611 5609 5607 5605 5605 5605 5604 5601 5600 5600 5599 5598 5596 5594 5593 5592 5591 5589 5588 5587 5585 5584 5583 5581 5580 5579 5578 5577 5575
5617 5617 5618 5618 5617 5616 5614 5614 5615 5614 5613 5612 5610 5609 5607 5604 5602 5602 5601 5601 5599 5597 5594 5593 5592 5591 5590 5587 5586 5584 5583 5581 5580 5579 5578 5577 5575 5574 5572 5570 5569 5568 5566 5565
5613 5613 5613 5612 5610 5608 5608 5609 5608 5607 5606 5604 5603 5602 5601 5599 5597 5596 5595 5594 5592 5590 5588 5587 5585 5584 5581 5579 5577 5575 5574 5572 5571 5570 5570 5569 5567 5565 5562 5560 5558 5557 5556 5554
5608 5608 5607 5607 5606 5605 5604 5603 5601 5600 5598 5596 5595 5594 5593 5593 5591 5590 5588 5587 5585 5583 5580 5578 5577 5575 5573 5570 5568 5567 5565 5564 5563 5561 5560 5559 5557 5554 5551 5549 5547 5545 5543 5541
5604 5604 5603 5602 5601 5601 5600 5598 5595 5593 5592 5590 5588 5587 5587 5586 5584 5583 5581 5579 5577 5575 5573 5571 5569 5567 5565 5562 5560 5558 5556 5554 5552 5550 5549 5547 5545 5542 5540 5538 5536 5534 5531 5530